�������l�o���
Date,Time,MP-1(��Sv/h),MP-2(��Sv/h),MP-3(��Sv/h),MP-4(��Sv/h),MP-5(��Sv/h),MP-6(��Sv/h),MP-7(��Sv/h),MP-8(��Sv/h),����,����(m/s),���J
2018/08/06,00:00,0.888,1.294,0.911,1.631,1.188,0.481,0.852,0.801,�k�k��,6.5,��
2018/08/06,00:10,0.888,1.294,0.911,1.630,1.190,0.480,0.853,0.802,�k�k��,6.9,��
2018/08/06,00:20,0.889,1.292,0.911,1.629,1.190,0.480,0.852,0.803,�k�k��,6.2,��
2018/08/06,00:30,0.889,1.295,0.913,1.630,1.189,0.481,0.854,0.802,�k,5.1,��
2018/08/06,00:40,0.887,1.293,0.910,1.631,1.191,0.480,0.851,0.801,�k,5.0,�L
2018/08/06,00:50,0.887,1.291,0.913,1.629,1.189,0.479,0.854,0.803,�k,4.1,�L
2018/08/06,01:00,0.888,1.292,0.912,1.632,1.190,0.479,0.852,0.802,�k,2.8,��
2018/08/06,01:10,0.886,1.292,0.913,1.628,1.190,0.480,0.852,0.803,�k,2.9,��
2018/08/06,01:20,0.887,1.292,0.912,1.632,1.190,0.480,0.852,0.800,�k,2.3,��
2018/08/06,01:30,0.888,1.291,0.912,1.629,1.190,0.479,0.850,0.802,�k,1.7,��
2018/08/06,01:40,0.887,1.294,0.912,1.633,1.189,0.479,0.852,0.803,�k,3.3,��
2018/08/06,01:50,0.885,1.292,0.911,1.632,1.190,0.478,0.852,0.801,�k,3.1,��
2018/08/06,02:00,0.889,1.290,0.911,1.631,1.189,0.480,0.852,0.802,�k,3.2,��
2018/08/06,02:10,0.888,1.293,0.911,1.634,1.187,0.480,0.853,0.800,�k,4.0,�L
2018/08/06,02:20,0.890,1.292,0.911,1.630,1.189,0.480,0.853,0.801,�k�k��,4.1,�L
2018/08/06,02:30,0.886,1.294,0.913,1.631,1.190,0.480,0.853,0.802,�k�k��,4.7,�L
2018/08/06,02:40,0.886,1.293,0.912,1.630,1.190,0.479,0.851,0.802,�k�k��,4.5,�L
2018/08/06,02:50,0.886,1.291,0.911,1.630,1.189,0.480,0.853,0.803,�k,3.7,�L
2018/08/06,03:00,0.886,1.293,0.912,1.630,1.189,0.481,0.850,0.802,�k�k��,3.1,��
2018/08/06,03:10,0.886,1.292,0.913,1.630,1.189,0.479,0.853,0.802,�k�k��,2.6,��
2018/08/06,03:20,0.885,1.293,0.911,1.630,1.189,0.479,0.852,0.801,�k�k��,2.5,�L
2018/08/06,03:30,0.887,1.292,0.913,1.630,1.190,0.482,0.852,0.803,�k�k��,1.9,�L
2018/08/06,03:40,0.885,1.293,0.913,1.629,1.191,0.480,0.851,0.802,�k�k��,1.4,�L
2018/08/06,03:50,0.890,1.291,0.915,1.627,1.189,0.479,0.853,0.804,�k��,1.7,�L
2018/08/06,04:00,0.888,1.292,0.911,1.632,1.190,0.480,0.851,0.801,�k��,1.1,�L
2018/08/06,04:10,0.887,1.292,0.912,1.627,1.189,0.482,0.852,0.802,�k��,1.5,�L
2018/08/06,04:20,0.885,1.291,0.912,1.627,1.187,0.481,0.852,0.801,�k,2.0,�L
2018/08/06,04:30,0.884,1.290,0.912,1.629,1.190,0.480,0.849,0.800,�k,2.8,�L
2018/08/06,04:40,0.883,1.291,0.911,1.630,1.189,0.480,0.853,0.801,�k,2.5,�L
2018/08/06,04:50,0.883,1.289,0.912,1.627,1.187,0.481,0.851,0.801,�k,2.3,�L
2018/08/06,05:00,0.881,1.289,0.910,1.629,1.188,0.479,0.848,0.802,�k,2.5,�L
2018/08/06,05:10,0.882,1.289,0.914,1.631,1.186,0.480,0.851,0.800,�k�k��,2.6,�L
2018/08/06,05:20,0.882,1.287,0.912,1.627,1.190,0.480,0.851,0.802,�k�k��,3.1,�L
2018/08/06,05:30,0.882,1.287,0.913,1.625,1.187,0.480,0.848,0.802,�k�k��,3.6,�L
2018/08/06,05:40,0.880,1.286,0.910,1.626,1.184,0.480,0.852,0.803,�k,4.0,�L
2018/08/06,05:50,0.881,1.285,0.910,1.627,1.185,0.479,0.850,0.801,�k�k��,5.1,�L
2018/08/06,06:00,0.881,1.287,0.909,1.625,1.188,0.482,0.851,0.802,�k�k��,6.2,��
2018/08/06,06:10,0.881,1.283,0.910,1.622,1.185,0.480,0.848,0.801,�k�k��,5.6,�L
2018/08/06,06:20,0.880,1.283,0.910,1.625,1.185,0.479,0.849,0.803,�k�k��,5.4,�L
2018/08/06,06:30,0.881,1.279,0.909,1.623,1.185,0.480,0.850,0.800,�k�k��,5.2,�L
2018/08/06,06:40,0.881,1.284,0.907,1.624,1.182,0.481,0.851,0.802,�k�k��,5.2,�L
2018/08/06,06:50,0.880,1.283,0.909,1.627,1.185,0.482,0.851,0.800,�k�k��,5.3,�L
2018/08/06,07:00,0.879,1.284,0.907,1.625,1.183,0.481,0.850,0.801,�k�k��,6.2,�L
2018/08/06,07:10,0.881,1.282,0.908,1.625,1.185,0.479,0.850,0.801,�k�k��,5.4,�L
2018/08/06,07:20,0.880,1.284,0.907,1.625,1.181,0.479,0.851,0.800,�k�k��,4.2,��
2018/08/06,07:30,0.882,1.283,0.909,1.623,1.182,0.481,0.849,0.801,�k��,3.2,��
2018/08/06,07:40,0.881,1.283,0.907,1.625,1.183,0.478,0.849,0.800,�k�k��,3.9,��
2018/08/06,07:50,0.879,1.283,0.911,1.626,1.181,0.478,0.849,0.800,�k�k��,3.4,��
2018/08/06,08:00,0.879,1.282,0.908,1.624,1.183,0.478,0.849,0.802,�k,2.9,��
2018/08/06,08:10,0.879,1.285,0.910,1.624,1.182,0.478,0.849,0.800,�k�k��,3.8,��
2018/08/06,08:20,0.878,1.284,0.908,1.625,1.180,0.479,0.848,0.800,�k�k��,3.0,��
2018/08/06,08:30,0.878,1.281,0.906,1.624,1.181,0.477,0.850,0.801,�k�k��,3.7,�L
2018/08/06,08:40,0.879,1.281,0.905,1.623,1.181,0.477,0.847,0.801,�k��,4.9,�L
2018/08/06,08:50,0.879,1.281,0.906,1.626,1.181,0.477,0.850,0.800,�k��,3.0,�L
2018/08/06,09:00,0.875,1.276,0.906,1.619,1.176,0.480,0.848,0.801,���k��,4.0,�L
2018/08/06,09:10,0.877,1.272,0.906,1.619,1.176,0.481,0.849,0.799,�k��,4.3,�L
2018/08/06,09:20,0.875,1.271,0.904,1.618,1.175,0.481,0.847,0.799,�k,3.7,�L
2018/08/06,09:30,0.872,1.271,0.906,1.619,1.173,0.481,0.848,0.799,�k,5.2,�L
2018/08/06,09:40,0.874,1.272,0.904,1.616,1.171,0.481,0.847,0.798,�k�k��,5.8,�L
2018/08/06,09:50,0.867,1.267,0.903,1.618,1.171,0.483,0.846,0.799,�k,6.2,�L
2018/08/06,10:00,0.868,1.266,0.903,1.613,1.173,0.482,0.847,0.798,�k�k��,5.6,�L
2018/08/06,10:10,0.867,1.266,0.905,1.613,1.172,0.481,0.847,0.797,�k�k��,5.3,�L
2018/08/06,10:20,0.865,1.261,0.899,1.610,1.172,0.480,0.844,0.798,�k,4.6,�L
2018/08/06,10:30,0.864,1.262,0.899,1.612,1.170,0.479,0.844,0.796,�k,5.0,�L
2018/08/06,10:40,0.864,1.264,0.899,1.609,1.171,0.479,0.844,0.795,�k�k��,5.1,�L
2018/08/06,10:50,0.862,1.260,0.900,1.607,1.170,0.478,0.846,0.795,�k,5.8,�L
2018/08/06,11:00,0.862,1.257,0.897,1.608,1.167,0.477,0.844,0.795,�k,7.0,�L
2018/08/06,11:10,0.860,1.260,0.897,1.606,1.166,0.477,0.844,0.793,�k,6.5,�L
2018/08/06,11:20,0.859,1.257,0.898,1.608,1.172,0.475,0.843,0.795,�k�k��,6.6,�L
2018/08/06,11:30,0.859,1.254,0.897,1.606,1.170,0.477,0.841,0.794,�k,6.8,�L
2018/08/06,11:40,0.857,1.255,0.892,1.604,1.161,0.474,0.842,0.793,�k,6.8,�L
2018/08/06,11:50,0.856,1.253,0.895,1.603,1.161,0.478,0.842,0.794,�k,6.8,�L
2018/08/06,12:00,0.858,1.251,0.893,1.603,1.159,0.479,0.842,0.792,�k�k��,5.4,�L
2018/08/06,12:10,0.855,1.250,0.894,1.605,1.160,0.478,0.842,0.794,�k,5.1,�L
2018/08/06,12:20,0.857,1.253,0.894,1.603,1.163,0.476,0.842,0.793,�k,5.7,�L
2018/08/06,12:30,0.857,1.254,0.895,1.603,1.160,0.478,0.842,0.794,�k,6.4,�L
2018/08/06,12:40,0.856,1.253,0.892,1.603,1.160,0.478,0.841,0.792,�k�k��,6.2,�L
2018/08/06,12:50,0.855,1.249,0.893,1.598,1.158,0.477,0.842,0.793,�k,7.4,�L
2018/08/06,13:00,0.856,1.248,0.895,1.603,1.160,0.478,0.843,0.794,�k,7.9,�L
2018/08/06,13:10,0.856,1.250,0.893,1.600,1.159,0.478,0.840,0.790,�k�k��,8.1,�L
2018/08/06,13:20,0.857,1.245,0.892,1.604,1.160,0.476,0.840,0.794,�k�k��,9.0,�L
2018/08/06,13:30,0.855,1.248,0.892,1.605,1.160,0.476,0.841,0.793,�k�k��,8.9,�L
2018/08/06,13:40,0.857,1.248,0.894,1.604,1.161,0.476,0.843,0.795,�k�k��,8.9,�L
2018/08/06,13:50,0.855,1.247,0.891,1.606,1.161,0.473,0.843,0.794,�k�k��,9.2,�L
2018/08/06,14:00,0.854,1.250,0.892,1.602,1.160,0.475,0.842,0.793,�k�k��,9.6,�L
2018/08/06,14:10,0.856,1.248,0.892,1.605,1.160,0.473,0.842,0.795,�k,9.0,�L
2018/08/06,14:20,0.854,1.247,0.893,1.605,1.158,0.476,0.842,0.793,�k,9.0,�L
2018/08/06,14:30,0.854,1.245,0.892,1.602,1.157,0.475,0.842,0.794,�k,9.2,�L
2018/08/06,14:40,0.853,1.245,0.890,1.602,1.157,0.473,0.841,0.793,�k,9.2,�L
2018/08/06,14:50,0.851,1.243,0.889,1.600,1.152,0.473,0.840,0.791,�k,9.0,�L
2018/08/06,15:00,0.853,1.239,0.889,1.597,1.151,0.474,0.839,0.791,�k,9.3,�L
2018/08/06,15:10,0.852,1.240,0.888,1.595,1.148,0.473,0.840,0.792,�k,9.0,�L
2018/08/06,15:20,0.851,1.239,0.888,1.595,1.148,0.473,0.840,0.792,�k,10.5,�L
2018/08/06,15:30,0.850,1.237,0.887,1.590,1.149,0.472,0.839,0.792,�k,9.5,�L
2018/08/06,15:40,0.850,1.236,0.885,1.589,1.145,0.472,0.838,0.792,�k,9.3,�L
2018/08/06,15:50,0.850,1.233,0.886,1.587,1.144,0.471,0.839,0.790,�k,8.6,�L
2018/08/06,16:00,0.849,1.234,0.884,1.585,1.143,0.474,0.839,0.791,�k,11.3,�L
2018/08/06,16:10,0.849,1.232,0.884,1.587,1.142,0.472,0.837,0.790,�k,9.4,�L
2018/08/06,16:20,0.848,1.231,0.882,1.579,1.141,0.472,0.837,0.792,�k,10.7,�L
2018/08/06,16:30,0.847,1.227,0.882,1.576,1.139,0.471,0.836,0.789,�k,8.9,�L
2018/08/06,16:40,0.843,1.223,0.880,1.572,1.138,0.471,0.835,0.789,�k,9.8,�L
2018/08/06,16:50,0.843,1.224,0.879,1.567,1.132,0.468,0.835,0.787,�k,9.7,�L
2018/08/06,17:00,0.842,1.217,0.879,1.565,1.131,0.469,0.834,0.786,�k,9.5,�L
2018/08/06,17:10,0.843,1.216,0.875,1.560,1.127,0.470,0.833,0.786,�k,8.6,�L
2018/08/06,17:20,0.839,1.215,0.876,1.558,1.128,0.469,0.833,0.786,�k,7.7,�L
2018/08/06,17:30,0.842,1.212,0.874,1.559,1.127,0.469,0.834,0.786,�k,7.2,�L
2018/08/06,17:40,0.840,1.210,0.875,1.555,1.126,0.468,0.831,0.786,�k,7.8,�L
2018/08/06,17:50,0.839,1.211,0.874,1.554,1.123,0.468,0.831,0.785,�k�k��,8.0,�L
2018/08/06,18:00,0.838,1.208,0.871,1.553,1.123,0.468,0.831,0.784,�k�k��,8.8,�L
2018/08/06,18:10,0.838,1.206,0.870,1.547,1.121,0.466,0.832,0.786,�k�k��,9.0,�L
2018/08/06,18:20,0.835,1.205,0.870,1.552,1.118,0.467,0.830,0.784,�k,8.0,�L
2018/08/06,18:30,0.834,1.204,0.869,1.546,1.118,0.466,0.831,0.784,�k�k��,8.2,�L
2018/08/06,18:40,0.834,1.203,0.868,1.546,1.116,0.466,0.829,0.780,�k�k��,7.9,�L
2018/08/06,18:50,0.834,1.204,0.867,1.545,1.118,0.466,0.830,0.783,�k�k��,8.1,�L
2018/08/06,19:00,0.832,1.203,0.865,1.547,1.116,0.466,0.829,0.783,�k�k��,7.5,�L
2018/08/06,19:10,0.833,1.203,0.866,1.544,1.117,0.465,0.829,0.782,�k�k��,7.8,�L
2018/08/06,19:20,0.829,1.197,0.863,1.541,1.111,0.465,0.827,0.782,�k�k��,7.9,�L
2018/08/06,19:30,0.830,1.196,0.863,1.538,1.112,0.464,0.826,0.782,�k�k��,8.8,�L
2018/08/06,19:40,0.829,1.195,0.864,1.537,1.110,0.465,0.827,0.781,�k�k��,9.0,�L
2018/08/06,19:50,0.828,1.195,0.861,1.536,1.110,0.463,0.824,0.781,�k,7.6,�L
2018/08/06,20:00,0.830,1.191,0.860,1.531,1.110,0.464,0.825,0.782,�k,7.0,�L
2018/08/06,20:10,0.826,1.187,0.857,1.531,1.103,0.463,0.824,0.779,�k�k��,7.3,�L
2018/08/06,20:20,0.827,1.186,0.856,1.530,1.103,0.462,0.822,0.779,�k�k��,7.2,�L
2018/08/06,20:30,0.826,1.187,0.857,1.524,1.101,0.461,0.823,0.779,�k,9.0,�L
2018/08/06,20:40,0.823,1.182,0.856,1.523,1.101,0.462,0.823,0.778,�k,8.3,�L
2018/08/06,20:50,0.826,1.185,0.857,1.528,1.102,0.460,0.824,0.778,�k,7.1,�L
2018/08/06,21:00,0.826,1.186,0.858,1.526,1.100,0.462,0.822,0.778,�k,8.2,�L
2018/08/06,21:10,0.825,1.185,0.854,1.523,1.098,0.460,0.822,0.777,�k,10.5,�L
2018/08/06,21:20,0.824,1.182,0.853,1.524,1.098,0.460,0.822,0.776,�k,8.7,�L
2018/08/06,21:30,0.822,1.182,0.854,1.523,1.097,0.460,0.821,0.777,�k�k��,9.3,�L
2018/08/06,21:40,0.824,1.181,0.852,1.522,1.093,0.460,0.821,0.776,�k�k��,11.3,�L
2018/08/06,21:50,0.822,1.180,0.853,1.520,1.096,0.459,0.822,0.777,�k�k��,9.1,�L
2018/08/06,22:00,0.822,1.179,0.853,1.521,1.097,0.460,0.820,0.775,�k,9.8,�L
2018/08/06,22:10,0.824,1.177,0.853,1.516,1.093,0.459,0.818,0.774,�k�k��,8.6,�L
2018/08/06,22:20,0.823,1.175,0.850,1.515,1.089,0.459,0.819,0.774,�k�k��,9.1,�L
2018/08/06,22:30,0.822,1.174,0.850,1.517,1.087,0.460,0.818,0.774,�k�k��,9.2,�L
2018/08/06,22:40,0.820,1.177,0.848,1.515,1.092,0.458,0.819,0.772,�k�k��,9.8,�L
2018/08/06,22:50,0.819,1.176,0.850,1.517,1.091,0.457,0.816,0.772,�k,8.7,�L
2018/08/06,23:00,0.821,1.178,0.847,1.512,1.087,0.459,0.816,0.772,�k,8.8,�L
2018/08/06,23:10,0.819,1.174,0.846,1.512,1.090,0.457,0.816,0.773,�k,9.1,�L
2018/08/06,23:20,0.818,1.177,0.847,1.510,1.088,0.457,0.816,0.771,�k,8.3,�L
2018/08/06,23:30,0.820,1.175,0.844,1.512,1.089,0.456,0.817,0.773,�k,9.5,�L
2018/08/06,23:40,0.819,1.173,0.845,1.512,1.089,0.456,0.816,0.772,�k,10.2,�L
2018/08/06,23:50,0.819,1.173,0.846,1.509,1.086,0.456,0.814,0.771,�k,8.4,�L
